| DS18B20 | SHTC3 | ||||||
|---|---|---|---|---|---|---|---|
| ID | Date d/m/Y & Time | data1 สูง | data2 ต่ำ | data3 นอก | temp pcb | hum pcb | Time |
| 469 | 08/03/2026 06:10:35 | 27.2  | 26.8  | 25.7  | 27.0  | 71.5  | 06:10 |
| 468 | 08/03/2026 06:04:31 | 26.6  | 26.7  | 25.8  | 26.5  | 71.5  | 06:04 |
| 467 | 08/03/2026 05:59:49 | 26.6  | 26.7  | 25.7  | 26.5  | 71.5  | 05:59 |
| 466 | 08/03/2026 05:55:07 | 26.7  | 26.8  | 25.8  | 26.7  | 71.5  | 05:55 |
| 465 | 08/03/2026 05:50:25 | 26.7  | 26.8  | 25.7  | 26.7  | 71.5  | 05:50 |
| 464 | 08/03/2026 05:45:44 | 26.7  | 26.8  | 25.7  | 26.7  | 71.5  | 05:45 |
| 463 | 08/03/2026 05:41:00 | 26.8  | 26.8  | 25.7  | 26.6  | 71.5  | 05:41 |
| 462 | 08/03/2026 05:36:18 | 26.8  | 26.8  | 25.8  | 26.7  | 71.5  | 05:36 |
| 461 | 08/03/2026 05:31:36 | 26.8  | 26.9  | 25.9  | 26.7  | 71.6  | 05:31 |
| 460 | 08/03/2026 05:26:55 | 26.8  | 26.9  | 25.7  | 26.5  | 71.4  | 05:26 |
| 459 | 08/03/2026 05:22:13 | 26.8  | 26.9  | 25.8  | 26.8  | 71.4  | 05:22 |
| 458 | 08/03/2026 05:17:32 | 26.9  | 26.9  | 25.9  | 26.7  | 71.3  | 05:17 |
| 457 | 08/03/2026 05:12:51 | 26.9  | 26.9  | 25.7  | 27.0  | 71.4  | 05:12 |
| 456 | 08/03/2026 05:08:09 | 26.9  | 27.0  | 25.7  | 26.8  | 71.5  | 05:08 |
| 455 | 08/03/2026 05:03:27 | 26.9  | 27.0  | 25.8  | 26.9  | 71.4  | 05:03 |
| 454 | 08/03/2026 04:58:46 | 26.9  | 27.0  | 25.9  | 26.9  | 71.3  | 04:58 |
| 453 | 08/03/2026 04:54:05 | 27.0  | 27.1  | 25.9  | 26.9  | 71.4  | 04:54 |
| 452 | 08/03/2026 04:49:24 | 27.0  | 27.1  | 25.8  | 26.9  | 71.3  | 04:49 |
| 451 | 08/03/2026 04:44:42 | 27.0  | 27.1  | 25.9  | 26.9  | 71.1  | 04:44 |
| 450 | 08/03/2026 04:40:00 | 27.1  | 27.1  | 25.9  | 26.9  | 71.3  | 04:40 |
| 449 | 08/03/2026 04:35:19 | 27.1  | 27.1  | 25.9  | 26.9  | 71.3  | 04:35 |
| 448 | 08/03/2026 04:30:38 | 27.1  | 27.2  | 25.9  | 27.1  | 71.2  | 04:30 |
| 447 | 08/03/2026 04:25:57 | 27.1  | 27.2  | 25.9  | 27.1  | 71.2  | 04:25 |
| 446 | 08/03/2026 04:21:16 | 27.1  | 27.2  | 26.0  | 27.0  | 71.1  | 04:21 |